• Processing (Info)

  • MPEC 2019-G163: 2019 GE19

    The following Minor Planet Electronic Circular may be linked-to from your own Web pages, but must not otherwise be redistributed electronically.

    A form allowing access to any MPEC is at the bottom of this page.


    Read MPEC 2019-G162 Read MPEC 2019-G164


    M.P.E.C. 2019-G163                               Issued 2019 Apr. 14, 21:19 UT
    
         The Minor Planet Electronic Circulars contain information on unusual
             minor planets and routine data on comets.  They are published
        on behalf of Division F of the International Astronomical Union by the
              Minor Planet Center, Smithsonian Astrophysical Observatory,
                              Cambridge, MA 02138, U.S.A.
    
                 Prepared using the Tamkin Foundation Computer Network
    
                                  MPC@CFA.HARVARD.EDU
                URL https://www.minorplanetcenter.net/    ISSN 1523-6714
    
                                       2019 GE19
    
    Observations:
         K19G19E* C2019 04 05.37896 12 55 17.843-12 25 15.21         21.9 wUEG163F51
         K19G19E  C2019 04 05.39145 12 55 20.458-12 25 14.30         21.9 wUEG163F51
         K19G19E  C2019 04 05.41649 12 55 25.686-12 25 12.86         22.1 wUEG163F51
         K19G19E  C2019 04 06.43796712 59 19.327-12 23 36.47         22.3 GVEG163F51
         K19G19E  C2019 04 07.38358413 02 56.590-12 21 42.60         21.0 GVEG163F51
         K19G19E  C2019 04 07.39541813 02 59.050-12 21 41.11         22.1 GVEG163F51
         K19G19E  C2019 04 07.40725213 03 01.501-12 21 39.47         21.7 GVEG163F51
         K19G19E  C2019 04 07.41908713 03 03.934-12 21 37.87         22.3 GVEG163F51
         K19G19E  C2019 04 09.43008113 10 39.934-12 16 22.68         22.4 GVEG163F51
         K19G19E  C2019 04 09.44236413 10 42.462-12 16 20.28         22.1 GVEG163F51
         K19G19E  C2019 04 09.45467513 10 44.971-12 16 18.61         21.4 GVEG163F51
    
    Observer details:
    F51 Pan-STARRS 1, Haleakala.  Observers J. Bulger, T. Lowe, A. Schultz,
        M. Willman, K. Chambers, E. Magnier.  Measurers K. Chambers, S. Chastel,
        T. de Boer, L. Denneau, J. Fairlamb, H. Flewelling, M. Huber, C.-C. Lin,
        E. Magnier, Y. Ramanjooloo, R. Wainscoat, R. Weryk.  1.8-m
        Ritchey-Chretien + CCD.
    
    Orbital elements:
    2019 GE19                                                Earth MOID = 0.1632 AU
    Epoch 2019 Apr. 27.0 TT = JDT 2458600.5                 MPC
    M   6.79494              (2000.0)            P               Q
    n   0.26119523     Peri.  340.83996     -0.98102152     +0.19176014
    a   2.4237764      Node   210.26073     -0.16962869     -0.92051351
    e   0.5207205      Incl.    3.26710     -0.09393018     -0.34041583
    P   3.77           H   25.3           G   0.15           U   7
    Residuals in seconds of arc
    190405 F51  0.1-  0.0     190407 F51  0.0   0.4-    190409 F51  0.2-  0.2+
    190405 F51  0.0   0.2+    190407 F51  0.1+  0.2-    190409 F51  0.1+  0.3+
    190405 F51  0.2+  0.0     190407 F51  0.1+  0.0     190409 F51  0.1+  0.3-
    190406 F51  0.0   0.0     190407 F51  0.1-  0.2+
    
    Ephemeris:
    2019 GE19                a,e,i = 2.42, 0.52, 3                   q = 1.1617
    Date    TT    R. A. (2000) Decl.     Delta      r     Elong.  Phase     V
    2019 03 15    11 40 35.5 -10 57 10   0.1880  1.1779   166.6    11.3    22.7
    ...
    2019 03 30    12 31 00.9 -12 23 06   0.1651  1.1619   171.1     7.7    22.3
    ...
    2019 04 07    13 01 27.7 -12 22 02   0.1636  1.1637   174.2     5.0    22.1
    ...
    2019 04 13    13 23 51.9 -12 03 13   0.1676  1.1699   176.7     2.8    22.1
    2019 04 14    13 27 28.3 -11 59 03   0.1687  1.1713   177.1     2.4    22.0
    2019 04 15    13 31 01.9 -11 54 41   0.1699  1.1728   177.6     2.1    22.0
    ...
    2019 04 21    13 51 09.9 -11 25 40   0.1795  1.1842   179.5     0.4    22.0
    ...
    2019 04 29    14 14 07.6 -10 47 02   0.1987  1.2051   175.9     3.4    22.5
    ...
    2019 05 14    14 45 47.2 -10 06 47   0.2541  1.2602   168.1     9.5    23.5
    
    A. U. Tomatic                (C) Copyright 2019 MPC           M.P.E.C. 2019-G163
    

    Read MPEC 2019-G162 Read MPEC 2019-G164


    MPEC number:

    Enter an MPEC number in one of the following forms:

    • 1997-B01 (the full form)
    • J97B01 (the packed version of the full form)
    • B01 (the abbreviated form)